Погода в Делфзейле

Нидерланды     53°20′00″N   6°54′23″E
темп.,
°C
ветер,
м/с
пор.,
м/с
влажн.,
%
обл.,
%
осадки,
мм/ч
давл.,
гПа
погр.,
м
23 апреля, пт
пт2323:00+4сз49805 0.0 1027242
02:00+3сз48855 0.0 1027154
05:00+3сз36905 0.0 1027122
08:00+6сз47825 0.0 1028589
11:00+9ссз56645 0.0 10291065
14:00+10ссз56595 0.0 10301102
17:00+9ссз555878 0.0 1029915
20:00+6ссз35765 0.0 1029207
24 апреля, сб
сб2423:00+3ссз338881 0.0 102941
02:00+4сз3390100 0.0 102948
05:00+4ссз3490100 0.0 102867
08:00+6с2684100 0.0 1029323
11:00+8с5565100 0.0 10291015
14:00+9ссз6662100 0.0 10291023
17:00+8с676296 0.0 10281031
20:00+5с58715 0.0 1028568
25 апреля, вс
вс2523:00+3с47815 0.0 1028154
02:00+2с35846 0.0 1028101
05:00+2с36835 0.0 1028102
08:00+5с47735 0.0 1028884
11:00+7ссз676265 0.0 10281169
14:00+9ссз66595 0.0 10271256
17:00+9ссз55615 0.0 10271031
20:00+6ссз35785 0.0 1026201
26 апреля, пн
пн2623:00+2ссв33911 0.0 102644
02:00+1св22914 0.0 102618
05:00+1св22915 0.0 102517
08:00+4ссв23827 0.0 1025143
11:00+8с3262100 0.1 10241277
14:00+8с436045 0.1 10221036
17:00+9с4358100 0.0 10201089
20:00+5ссв5870100 0.0 1019335
27 апреля, вт
вт2723:00+2св3677100 0.0 1018117
02:00+3всв3575100 0.0 1017143
05:00+3всв3579100 0.0 1015117
08:00+5в3569100 0.0 1013178
11:00+10вюв454999 0.0 1013828
14:00+12в554236 0.0 10111711
17:00+12в444317 0.0 10101927
20:00+9св486511 0.0 1010217